Weather in Kopylovka

Russia / Tomsk District     58°40′20″N   82°16′01″E
temp.,
°C
wind,
m/s
gust,
m/s
humid.,
%
clouds,
%
prec.,
mm/h
press.,
hPa
HPBL,
m
16 may, sun
sun1601:00+8e1186100 0.0 101711
04:00+7ene2387100 0.0 101666
07:00+7ese3590100 1.4 1015219
10:00+8ene2390100 0.6 1015210
13:00+8e3692100 1.7 1015337
16:00+8e3484100 0.0 1015399
19:00+9ene237892 0.0 1015501
22:00+7ne229150 0.0 101646
17 may, mon
mon1701:00+7nnw009293 0.0 101620
04:00+7nnw1192100 0.0 101617
07:00+7w1188100 0.0 101682
10:00+9w1277100 0.0 1016461
13:00+11ssw1271100 0.0 1015556
16:00+10s0191100 2.2 1014104
19:00+9ese2495100 4.4 1013180
22:00+9se379567 0.0 1011239
18 may, tue
tue1801:00+9ese3797100 0.0 1009209
04:00+8e2498100 0.0 1007100
07:00+9e2497100 0.1 1005186
10:00+9ene3696100 0.8 1004311
13:00+8ne3695100 5.5 1006497
16:00+8ne51190100 0.4 1007689
19:00+7ne41087100 0.9 1010808
22:00+6nw2291100 0.0 101230
19 may, wed
wed1901:00+5nne513710 0.0 1013403
04:00+2nne310750 0.0 1015221
07:00+3nne38650 0.0 1017242
10:00+7nne46425 0.0 10171252
13:00+8n6844100 0.0 10171903
16:00+10nnw6827100 0.0 10162822
19:00+9n693081 0.0 10172744
22:00+5n49375 0.0 1019387
20 may, thu
thu2001:00+2nnw38485 0.0 1019221
04:00+1nnw39565 0.0 1020244
07:00+2n37490 0.0 1021322
10:00+5nnw343324 0.0 10211576
13:00+8wnw2328100 0.0 10201832
16:00+9wsw3330100 0.0 10181588
19:00+8sw3535100 0.0 10171518
22:00+5ssw4966100 0.3 1015657